W2CS Weather Reports


time (UTC)temp
F
wind
direction
speed
knots
gust
knots
rain 1hr
in
rain 24hr
in
rain mn
in
humidity
%
barometer
mb
20260510041634 53 0 0.0 0.9 0.00 0.00 0.00 94 1012.0
20260510041041 53 0 0.0 1.7 0.00 0.00 0.00 94 1012.0
20260510040540 52 0 0.0 1.7 0.00 0.00 0.00 94 1012.0
20260510040053 52 184 0.0 1.7 0.00 0.00 0.00 94 1012.0
20260510035538 52 0 0.0 2.6 0.00 0.00 0.00 94 1011.9
20260510035038 52 184 0.9 2.6 0.00 0.00 0.00 94 1011.8
20260510034602 52 75 0.9 2.6 0.00 0.00 0.00 94 1011.9
20260510034039 52 0 0.0 2.6 0.00 0.00 0.00 94 1011.9
20260510033538 52 237 0.0 1.7 0.00 0.00 0.00 94 1012.1
20260510033050 52 0 0.0 1.7 0.00 0.00 0.00 94 1012.1
20260510032537 52 0 0.0 1.7 0.00 0.00 0.00 94 1012.0
20260510032041 52 0 0.0 1.7 0.00 0.00 0.00 94 1011.8
20260510031602 51 237 0.0 1.7 0.00 0.00 0.00 94 1011.9
20260510031038 51 0 0.0 4.3 0.00 0.00 0.00 94 1012.0
20260510030537 51 0 0.0 4.3 0.00 0.00 0.00 94 1011.9
20260510030057 51 0 0.0 4.3 0.00 0.00 0.00 94 1011.9
20260510025538 51 0 0.0 1.7 0.00 0.00 0.00 94 1012.0
20260510025043 51 0 0.0 0.9 0.00 0.00 0.00 94 1012.1
20260510024552 51 0 0.0 0.9 0.00 0.00 0.00 94 1012.1
20260510024042 51 0 0.0 0.9 0.00 0.00 0.00 94 1012.2
20260510023538 51 0 0.0 0.9 0.00 0.00 0.00 94 1012.1
20260510023049 51 0 0.0 0.9 0.00 0.00 0.00 93 1012.2
20260510022538 51 0 0.0 0.9 0.00 0.00 0.00 93 1012.1
20260510022038 51 0 0.0 0.9 0.00 0.00 0.00 93 1012.2
20260510021552 50 0 0.0 0.9 0.00 0.00 0.00 93 1012.2
20260510021039 50 0 0.0 0.9 0.00 0.00 0.00 93 1012.1
20260510020539 50 0 0.0 0.9 0.00 0.00 0.00 93 1012.3
20260510020048 50 0 0.0 1.7 0.00 0.00 0.00 93 1012.4
20260510015541 50 0 0.0 1.7 0.00 0.00 0.00 93 1012.7
20260510015036 51 0 0.0 0.9 0.00 0.00 0.00 93 1012.8
20260510014550 51 0 0.0 2.6 0.00 0.00 0.00 93 1013.0
20260510014038 51 0 0.0 2.6 0.00 0.00 0.00 93 1013.0
20260510013539 51 0 0.0 1.7 0.00 0.00 0.00 93 1013.0
20260510013052 51 0 0.0 2.6 0.00 0.00 0.00 93 1013.0
20260510012538 51 0 0.0 3.5 0.00 0.00 0.00 93 1013.0
20260510012038 51 0 0.0 3.5 0.00 0.00 0.00 93 1013.0
20260510011549 51 0 0.0 0.0 0.00 0.00 0.00 93 1013.0
20260510011037 51 0 0.0 0.0 0.00 0.00 0.00 93 1013.0
20260510010537 51 0 0.0 1.7 0.00 0.00 0.00 93 1013.1
20260510010047 51 0 0.0 1.7 0.00 0.00 0.00 93 1013.1
20260510005538 51 0 0.0 1.7 0.00 0.00 0.00 93 1013.0
20260510005037 51 0 0.0 1.7 0.00 0.00 0.00 93 1013.0
20260510004548 51 0 0.0 1.7 0.00 0.00 0.00 93 1013.0
20260510004037 51 0 0.0 1.7 0.00 0.00 0.00 93 1013.2
20260510003547 51 287 0.0 1.7 0.00 0.00 0.00 93 1013.2
20260510003055 51 0 0.0 1.7 0.00 0.00 0.00 93 1013.3
20260510002536 52 0 0.0 1.7 0.00 0.00 0.00 93 1013.2
20260510002040 52 0 0.0 1.7 0.00 0.00 0.00 93 1013.3
20260510001552 52 0 0.0 1.7 0.00 0.00 0.00 93 1013.4
20260510001038 52 0 0.0 1.7 0.00 0.00 0.00 93 1013.4
20260510000539 52 316 0.0 1.7 0.00 0.00 0.00 93 1013.3
20260509235538 52 0 0.0 0.9 0.00 0.00 0.00 93 1013.5
20260509235038 52 0 0.0 0.9 0.00 0.00 0.00 93 1013.6
20260509234601 52 0 0.0 0.9 0.00 0.00 0.00 93 1013.6
20260509234038 52 0 0.0 0.9 0.00 0.00 0.00 93 1013.7
20260509233536 52 0 0.0 1.7 0.00 0.00 0.00 92 1013.8
20260509233056 52 0 0.0 1.7 0.00 0.00 0.00 92 1013.8
20260509232540 52 0 0.0 1.7 0.00 0.00 0.00 92 1013.8
20260509232039 52 75 0.0 1.7 0.00 0.00 0.00 92 1013.7
20260509231608 52 0 0.0 1.7 0.00 0.00 0.00 92 1013.8
20260509231041 52 0 0.0 3.5 0.00 0.00 0.00 92 1013.6
20260509230539 52 329 0.0 3.5 0.00 0.00 0.00 92 1013.6
20260509225540 53 253 0.9 2.6 0.00 0.00 0.00 92 1013.6
20260509225040 53 24 0.9 4.3 0.00 0.00 0.00 92 1013.6
20260509224557 53 0 0.9 4.3 0.00 0.00 0.00 92 1013.6
20260509224041 53 297 0.9 5.2 0.00 0.00 0.00 92 1013.5
20260509223538 53 51 0.9 5.2 0.00 0.00 0.00 92 1013.5
20260509223049 53 57 0.9 4.3 0.00 0.00 0.00 92 1013.4
20260509222543 53 0 0.0 4.3 0.00 0.00 0.00 92 1013.5
20260509222038 53 103 0.0 2.6 0.00 0.00 0.00 91 1013.4
20260509221557 53 0 0.0 3.5 0.00 0.00 0.00 92 1013.5
20260509221041 53 0 0.0 3.5 0.00 0.00 0.00 91 1013.3
20260509220537 53 359 0.9 3.5 0.00 0.00 0.00 91 1013.3
20260509220050 53 66 0.0 1.7 0.00 0.00 0.00 91 1013.3
20260509215539 53 0 0.0 1.7 0.00 0.00 0.00 91 1013.3
20260509215038 54 66 0.0 0.9 0.00 0.00 0.00 91 1013.2
20260509214551 54 0 0.0 1.7 0.00 0.00 0.00 91 1013.0
20260509214038 54 0 0.0 1.7 0.00 0.00 0.00 90 1012.9
20260509213539 54 0 0.0 2.6 0.00 0.00 0.00 90 1012.9
20260509213053 54 0 0.0 2.6 0.00 0.00 0.00 90 1012.9
20260509212539 54 0 0.0 2.6 0.00 0.00 0.00 90 1012.8
20260509212043 55 116 0.0 1.7 0.00 0.00 0.00 90 1012.7
20260509211558 55 232 0.0 1.7 0.00 0.00 0.00 90 1012.7
20260509211038 55 0 0.0 2.6 0.00 0.00 0.00 89 1012.7
20260509210538 55 0 0.0 2.6 0.00 0.00 0.00 89 1012.4
20260509210104 56 0 0.0 2.6 0.00 0.00 0.00 88 1012.5
20260509205541 56 0 0.0 2.6 0.00 0.00 0.00 88 1012.8
20260509205039 57 204 0.9 1.7 0.00 0.00 0.00 87 1012.8
20260509204549 57 0 0.0 3.5 0.00 0.00 0.00 86 1012.7
20260509204037 57 18 0.0 3.5 0.00 0.00 0.00 85 1012.5
20260509203541 57 0 0.0 2.6 0.00 0.00 0.00 85 1012.6
20260509203053 58 322 0.0 2.6 0.00 0.00 0.00 85 1012.6
20260509202539 58 235 0.0 4.3 0.00 0.00 0.00 85 1012.6
20260509202042 58 235 0.9 4.3 0.00 0.00 0.00 84 1012.8
20260509201558 58 226 0.0 1.7 0.00 0.00 0.00 85 1012.8
20260509201038 58 0 0.0 2.6 0.00 0.00 0.00 84 1012.7
20260509200538 58 0 0.0 3.5 0.00 0.00 0.00 84 1012.7
20260509195541 58 40 0.0 3.5 0.00 0.00 0.00 84 1012.9
20260509195039 58 241 0.0 3.5 0.00 0.00 0.00 85 1012.8
20260509194549 58 332 0.0 4.3 0.00 0.00 0.00 84 1013.0
20260509194039 58 213 0.0 4.3 0.00 0.00 0.00 85 1012.9
20260509193539 58 0 0.9 3.5 0.00 0.00 0.00 85 1012.9
20260509193053 58 0 0.0 3.5 0.00 0.00 0.00 85 1013.0
20260509192543 58 192 0.0 2.6 0.00 0.00 0.00 84 1012.9
20260509192039 58 117 0.9 2.6 0.00 0.00 0.00 84 1013.0
20260509191556 59 0 0.0 2.6 0.00 0.00 0.00 84 1013.0
20260509191040 59 231 0.9 2.6 0.00 0.00 0.00 83 1013.4
20260509190536 59 22 0.9 2.6 0.00 0.00 0.00 83 1013.3
20260509190107 60 276 0.0 2.6 0.00 0.00 0.00 83 1013.2
20260509185539 59 40 0.9 2.6 0.00 0.00 0.00 84 1013.2
20260509185039 59 0 0.0 3.5 0.00 0.00 0.00 84 1013.2
20260509184556 59 143 0.9 3.5 0.00 0.00 0.00 83 1013.2
20260509184038 60 107 0.9 2.6 0.00 0.00 0.00 82 1013.2
20260509183541 60 292 0.0 1.7 0.00 0.00 0.00 81 1013.3
20260509183051 60 0 0.0 3.5 0.00 0.00 0.00 82 1013.2
20260509182538 61 0 0.0 3.5 0.00 0.00 0.00 80 1013.3
20260509182041 61 0 0.0 2.6 0.00 0.00 0.00 79 1013.5
20260509181550 62 252 0.0 2.6 0.00 0.00 0.00 78 1013.5
20260509181038 62 0 0.0 2.6 0.00 0.00 0.00 79 1013.5
20260509180537 62 42 0.0 2.6 0.00 0.00 0.00 79 1013.5
20260509180059 62 42 0.0 2.6 0.00 0.00 0.00 78 1013.5
20260509175538 62 332 0.9 2.6 0.00 0.00 0.00 78 1013.6
20260509175039 62 120 0.0 1.7 0.00 0.00 0.00 79 1013.6
20260509174554 62 0 0.0 2.6 0.00 0.00 0.00 80 1013.6
20260509174042 62 0 0.0 2.6 0.00 0.00 0.00 81 1013.6
20260509173538 61 0 0.0 2.6 0.00 0.00 0.00 83 1013.6
20260509173100 61 216 0.0 1.7 0.00 0.00 0.00 82 1013.7
20260509172539 60 0 0.0 1.7 0.00 0.00 0.00 82 1013.7
20260509172039 60 0 0.0 1.7 0.00 0.00 0.00 83 1013.8
20260509171550 60 198 0.0 1.7 0.00 0.00 0.00 83 1013.8
20260509171039 59 0 0.0 1.7 0.00 0.00 0.00 84 1013.9
20260509170541 59 0 0.0 1.7 0.00 0.00 0.00 83 1014.1
20260509170059 59 0 0.0 1.7 0.00 0.00 0.00 82 1014.1
20260509165542 59 0 0.0 1.7 0.00 0.00 0.00 83 1014.1
20260509165039 59 0 0.0 1.7 0.00 0.00 0.00 82 1014.1
20260509164550 59 253 0.0 1.7 0.00 0.00 0.00 83 1014.2
20260509164039 59 0 0.0 2.6 0.00 0.00 0.00 82 1014.0
20260509163542 59 0 0.0 2.6 0.00 0.00 0.00 82 1013.9
20260509163059 60 0 0.0 1.7 0.00 0.00 0.00 83 1014.0
20260509162541 59 297 0.0 2.6 0.00 0.00 0.00 82 1014.1
20260509162039 59 0 0.0 2.6 0.00 0.00 0.00 83 1013.9
20260509161555 59 0 0.0 2.6 0.00 0.00 0.00 81 1014.0
20260509161039 59 216 0.0 1.7 0.00 0.00 0.00 82 1013.9
20260509160541 59 216 0.0 1.7 0.00 0.00 0.00 82 1014.0
20260509160051 59 0 0.0 1.7 0.00 0.00 0.00 82 1014.2
20260509155541 59 216 0.0 1.7 0.00 0.00 0.00 82 1014.3
20260509155040 59 216 0.0 1.7 0.00 0.00 0.00 80 1014.3
20260509154602 59 0 0.0 1.7 0.00 0.00 0.00 80 1014.3
20260509154040 60 208 0.0 1.7 0.00 0.00 0.00 82 1014.3
20260509153539 60 206 0.0 1.7 0.00 0.00 0.00 79 1014.4
20260509153057 60 206 0.0 1.7 0.00 0.00 0.00 79 1014.3
20260509152539 60 206 0.0 2.6 0.00 0.00 0.00 82 1014.4
20260509152039 60 206 0.0 2.6 0.00 0.00 0.00 81 1014.4
20260509151554 60 0 0.9 2.6 0.00 0.00 0.00 81 1014.4
20260509151039 60 203 0.0 1.7 0.00 0.00 0.00 81 1014.5
20260509150539 60 203 0.0 1.7 0.00 0.00 0.00 83 1014.4
20260509150106 60 199 0.0 1.7 0.00 0.00 0.00 83 1014.4
20260509145539 59 199 0.0 1.7 0.00 0.00 0.00 83 1014.5
20260509145038 59 199 0.0 1.7 0.00 0.00 0.00 84 1014.5
20260509144556 59 0 0.0 1.7 0.00 0.00 0.00 83 1014.5
20260509144041 58 0 0.0 1.7 0.00 0.00 0.00 84 1014.5
20260509143539 58 0 0.0 1.7 0.00 0.00 0.00 84 1014.7
20260509143053 57 0 0.0 1.7 0.00 0.00 0.00 85 1014.6
20260509142539 57 0 0.0 2.6 0.00 0.00 0.00 87 1014.7
20260509142040 56 194 0.0 2.6 0.00 0.00 0.00 85 1014.4
20260509141549 56 0 0.0 1.7 0.00 0.00 0.00 86 1014.4
20260509141041 56 0 0.0 2.6 0.00 0.00 0.00 88 1014.4
20260509140539 55 0 0.0 2.6 0.00 0.00 0.00 88 1014.4
20260509140055 54 0 0.9 2.6 0.00 0.00 0.00 87 1014.4
20260509135541 54 278 0.0 2.6 0.00 0.00 0.00 88 1014.4
20260509135042 53 0 0.0 2.6 0.00 0.00 0.00 89 1014.5
20260509134549 53 0 0.0 1.7 0.00 0.00 0.00 89 1014.6
20260509134038 53 0 0.0 1.7 0.00 0.00 0.00 90 1014.7
20260509133539 52 238 0.0 1.7 0.00 0.00 0.00 90 1014.8
20260509133059 52 0 0.0 1.7 0.00 0.00 0.00 91 1014.9
20260509132539 52 0 0.0 2.6 0.00 0.00 0.00 91 1015.0
20260509132039 52 0 0.0 2.6 0.00 0.00 0.00 91 1014.7
20260509131551 52 149 0.0 3.5 0.00 0.00 0.00 91 1014.9
20260509131039 52 176 0.0 3.5 0.00 0.00 0.00 91 1015.1
20260509130539 52 0 0.0 3.5 0.00 0.00 0.00 91 1015.3
20260509130055 52 0 0.0 1.7 0.00 0.00 0.00 91 1015.2
20260509125538 52 0 0.0 2.6 0.00 0.00 0.00 91 1015.0
20260509125038 52 0 0.0 3.5 0.00 0.00 0.00 91 1015.0
20260509124556 52 0 0.0 3.5 0.00 0.00 0.00 92 1015.2
20260509124039 52 56 0.9 3.5 0.00 0.00 0.00 92 1015.3
20260509123539 52 181 0.0 3.5 0.00 0.00 0.00 92 1015.2
20260509123054 52 0 0.0 1.7 0.00 0.00 0.00 93 1015.4
20260509122538 53 0 0.0 1.7 0.00 0.00 0.00 94 1015.4
20260509122042 53 0 0.0 2.6 0.00 0.00 0.00 94 1015.3
20260509121557 52 0 0.0 2.6 0.00 0.00 0.00 94 1015.2
20260509121039 51 0 0.9 2.6 0.00 0.00 0.00 94 1015.2
20260509120539 51 39 0.0 1.7 0.00 0.00 0.00 94 1015.0
20260509120051 50 128 0.0 1.7 0.00 0.00 0.00 94 1015.0
20260509115538 50 0 0.0 2.6 0.00 0.00 0.00 94 1014.9
20260509115039 50 0 0.0 2.6 0.00 0.00 0.00 94 1015.0
20260509114600 50 157 0.0 2.6 0.00 0.00 0.00 94 1014.9
20260509114040 49 0 0.0 1.7 0.00 0.00 0.00 94 1014.8
20260509113540 49 0 0.0 0.9 0.00 0.00 0.00 94 1015.0
20260509113048 48 0 0.0 0.9 0.00 0.00 0.00 94 1015.0
20260509112539 48 0 0.0 0.0 0.00 0.00 0.00 94 1015.1
20260509112043 48 0 0.0 0.0 0.00 0.00 0.00 94 1015.1
20260509111551 48 0 0.0 0.0 0.00 0.00 0.00 94 1015.1
20260509111043 47 0 0.0 0.0 0.00 0.00 0.00 94 1015.0
20260509110538 47 0 0.0 0.0 0.00 0.00 0.00 94 1015.1
20260509110050 47 0 0.0 1.7 0.00 0.00 0.00 94 1015.1
20260509105539 47 0 0.0 1.7 0.00 0.00 0.00 94 1015.2
20260509105039 47 0 0.0 1.7 0.00 0.00 0.00 94 1015.3
20260509104550 47 0 0.9 1.7 0.00 0.00 0.00 94 1015.3
20260509104040 47 0 0.0 1.7 0.00 0.00 0.00 94 1015.3
20260509103539 47 107 0.9 1.7 0.00 0.00 0.00 94 1015.1
20260509103048 46 0 0.0 1.7 0.00 0.00 0.00 94 1015.2
20260509102538 46 0 0.0 0.0 0.00 0.00 0.00 94 1015.3
20260509102039 46 0 0.0 0.0 0.00 0.00 0.00 94 1015.3
20260509101548 46 0 0.0 0.0 0.00 0.00 0.00 94 1015.2
20260509101039 46 0 0.0 0.0 0.00 0.00 0.00 94 1015.2
20260509100539 46 0 0.0 0.0 0.00 0.00 0.00 94 1015.2
20260509100048 46 0 0.0 0.0 0.00 0.00 0.00 93 1015.2
20260509095537 46 0 0.0 0.0 0.00 0.00 0.00 93 1015.1
20260509095039 45 0 0.0 0.0 0.00 0.00 0.00 94 1015.0
20260509094552 46 0 0.0 0.0 0.00 0.00 0.00 94 1014.8
20260509094038 45 0 0.0 0.0 0.00 0.00 0.00 93 1014.6
20260509093540 45 0 0.0 1.7 0.00 0.00 0.00 93 1014.6
20260509093053 45 0 0.0 1.7 0.00 0.00 0.00 93 1014.5
20260509092539 45 0 0.0 0.0 0.00 0.00 0.00 93 1014.5
20260509092042 45 0 0.0 0.0 0.00 0.00 0.00 93 1014.6
20260509091558 45 0 0.0 0.9 0.00 0.00 0.00 93 1014.4
20260509091039 44 0 0.0 0.9 0.00 0.00 0.00 93 1014.4
20260509090540 44 0 0.0 0.9 0.00 0.00 0.00 93 1014.3
20260509090100 44 0 0.0 0.0 0.00 0.00 0.00 93 1014.4
20260509085542 44 0 0.0 0.0 0.00 0.00 0.00 93 1014.1
20260509085039 44 0 0.0 0.0 0.00 0.00 0.00 93 1014.1
20260509084556 44 0 0.0 0.0 0.00 0.00 0.00 93 1014.0
20260509084039 44 0 0.0 0.0 0.00 0.00 0.00 93 1013.8
20260509083540 44 0 0.0 0.0 0.00 0.00 0.00 93 1013.9
20260509083056 44 0 0.0 0.0 0.00 0.00 0.00 93 1013.9
20260509082538 44 0 0.0 0.0 0.00 0.00 0.00 93 1013.8
20260509082041 44 0 0.0 0.0 0.00 0.00 0.00 93 1013.8
20260509081553 44 0 0.0 0.0 0.00 0.00 0.00 93 1013.9
20260509081040 44 0 0.0 0.0 0.00 0.00 0.00 93 1014.0
20260509080537 44 0 0.0 0.0 0.00 0.00 0.00 93 1013.9
20260509080106 44 0 0.0 0.0 0.00 0.00 0.00 93 1013.8
20260509075539 44 0 0.0 0.0 0.00 0.00 0.00 93 1013.9
20260509075043 44 0 0.0 0.0 0.00 0.00 0.00 93 1014.1
20260509074550 45 0 0.0 0.0 0.00 0.00 0.00 93 1014.0
20260509074043 45 0 0.0 0.0 0.00 0.00 0.00 93 1014.1
20260509073539 45 0 0.0 0.0 0.00 0.00 0.00 93 1014.2
20260509073106 45 0 0.0 0.0 0.00 0.00 0.00 93 1014.2
20260509072539 45 0 0.0 0.0 0.00 0.00 0.00 93 1014.3
20260509072038 45 0 0.0 0.0 0.00 0.00 0.00 93 1014.4
20260509071553 45 0 0.0 0.0 0.00 0.00 0.00 93 1014.4
20260509071039 45 0 0.0 0.0 0.00 0.00 0.00 93 1014.3
20260509070539 45 0 0.0 0.0 0.00 0.00 0.00 93 1014.3
20260509070058 45 0 0.0 0.0 0.00 0.00 0.00 93 1014.3
20260509065538 45 0 0.0 0.0 0.00 0.00 0.00 93 1014.5
20260509065039 45 0 0.0 0.0 0.00 0.00 0.00 93 1014.5
20260509064556 45 0 0.0 0.0 0.00 0.00 0.00 93 1014.5
20260509064039 45 0 0.0 0.0 0.00 0.00 0.00 93 1014.6
20260509063539 44 0 0.0 0.9 0.00 0.00 0.00 93 1014.5
20260509063055 44 0 0.0 0.9 0.00 0.00 0.00 93 1014.6
20260509062539 44 0 0.0 0.0 0.00 0.00 0.00 93 1014.7
20260509062038 44 0 0.0 0.0 0.00 0.00 0.00 93 1014.9
20260509061548 44 0 0.0 0.0 0.00 0.00 0.00 93 1014.8
20260509061038 44 0 0.0 0.0 0.00 0.00 0.00 93 1014.6
20260509060539 43 0 0.0 0.0 0.00 0.00 0.00 93 1014.7
20260509060055 43 0 0.0 0.0 0.00 0.00 0.00 93 1014.8
20260509055539 43 0 0.0 0.0 0.00 0.00 0.00 93 1014.6
20260509055038 43 0 0.0 0.0 0.00 0.00 0.00 93 1014.6
20260509054554 43 0 0.0 0.0 0.00 0.00 0.00 93 1014.6
20260509054038 43 0 0.0 0.0 0.00 0.00 0.00 92 1014.6
20260509053539 43 0 0.0 0.0 0.00 0.00 0.00 92 1014.6
20260509053048 43 0 0.0 0.0 0.00 0.00 0.00 92 1014.5
20260509052538 43 0 0.0 0.0 0.00 0.00 0.00 93 1014.5
20260509052039 43 0 0.0 0.0 0.00 0.00 0.00 93 1014.5
20260509051551 43 0 0.0 0.0 0.00 0.00 0.00 93 1014.5
20260509051039 43 0 0.0 0.9 0.00 0.00 0.00 93 1014.4
20260509050539 42 0 0.0 1.7 0.00 0.00 0.00 93 1014.5
20260509050058 42 107 0.0 1.7 0.00 0.00 0.00 93 1014.5
20260509045539 42 107 0.9 1.7 0.00 0.00 0.00 92 1014.4
20260509045039 41 107 0.9 1.7 0.00 0.00 0.00 92 1014.5
20260509044550 41 108 0.0 1.7 0.00 0.00 0.00 92 1014.6
20260509044039 41 0 0.0 1.7 0.00 0.00 0.00 92 1014.6
20260509043538 41 0 0.0 1.7 0.00 0.00 0.00 92 1014.5
20260509043050 41 107 0.0 0.9 0.00 0.00 0.00 92 1014.5
20260509042538 41 107 0.0 1.7 0.00 0.00 0.00 91 1014.3
20260509042039 41 107 0.0 1.7 0.00 0.00 0.00 92 1014.3